Location: Browne Barr
(41.2080°N, 111.9480°W)
Time: 07:33:53
(UTC+00:00)

X-37B - Pass Details

Date: 08 August 2021
Orbit: 381 x 393 km, 45.0° (Epoch: 29 August)

Event Time Altitude Azimuth Distance (km) Brightness Sun altitude
Exits shadow 10:51:07 19° 302° (WNW) 979 2.4 -16.8°
Maximum altitude 10:52:57 38° 2° (N) 593 1.8 -16.5°
Drops below altitude 10° 10:55:56 10° 73° (ENE) 1,397 4.5 -16.1°
Sets 10:58:04 0° 82° (E) 2,250 5.5 -15.8°
